GEFSNGP_850_meantemp_072.txt.gz
Temperature
11 11 11 11 11 11 10 9 9 10 10 11 11 10 10 10 10 10 9 9 8 8 8 8 7 7 7 6 6 6 6 6 5 5 5 5 4 4 4 3 3 3 3 2
11 11 10 10 10 10 10 9 9 10 10 10 10 10 10 10 9 9 8 8 8 7 7 7 6 6 6 6 6 5 5 5 5 4 4 4 4 3 3 3 2 2 2 1
8 9 9 8 9 9 9 9 9 9 9 9 9 9 9 9 8 8 7 7 7 6 6 6 6 5 5 5 5 5 4 4 4 3 3 3 3 2 2 2 1 1 1 0
7 8 8 10 10 10 10 10 9 9 8 8 8 9 9 8 8 7 7 6 6 6 5 5 5 5 4 4 4 4 4 3 3 2 2 2 1 1 1 0 -0 -0 -0 -0
6 7 7 8 10 11 11 9 8 8 8 8 8 7 8 8 7 6 6 6 5 5 5 5 4 4 4 4 4 3 3 2 2 1 1 1 0 -0 -0 -1 -1 -1 -1 -1
6 7 7 9 10 11 10 8 8 7 7 7 6 4 5 7 6 6 5 5 4 4 4 4 4 3 3 3 3 2 2 1 1 0 -0 -0 -1 -1 -1 -2 -2 -2 -2 -2
5 6 7 8 9 10 9 8 7 7 7 6 5 5 6 5 5 5 4 4 4 4 3 3 3 3 2 2 2 1 1 0 0 -0 -1 -1 -2 -2 -2 -2 -2 -3 -3 -2
4 5 6 9 9 8 7 7 7 7 6 6 5 5 5 5 4 4 4 3 3 3 3 3 2 2 1 1 1 0 -0 -1 -1 -1 -2 -2 -2 -3 -3 -3 -3 -3 -3 -3
6 7 8 9 8 7 7 7 6 6 5 5 5 4 4 4 4 4 3 3 3 2 2 2 1 1 0 0 -0 -1 -1 -2 -2 -2 -2 -3 -3 -3 -4 -4 -4 -4 -4 -4
5 6 7 7 7 6 6 6 5 5 5 4 4 4 3 3 3 3 3 2 2 1 1 1 1 0 -0 -1 -1 -2 -2 -3 -3 -3 -3 -4 -4 -4 -5 -5 -5 -5 -4 -4
5 6 6 6 6 5 5 5 5 5 4 4 3 3 3 3 2 2 2 1 1 1 0 0 -0 -1 -1 -2 -2 -3 -3 -4 -4 -4 -4 -5 -5 -5 -5 -5 -5 -5 -4 -4
5 6 5 5 5 5 5 5 5 4 4 4 3 3 2 2 2 2 1 1 0 0 -0 -1 -1 -1 -2 -2 -3 -4 -4 -4 -5 -5 -5 -5 -5 -5 -5 -5 -5 -4 -4 -4
6 6 6 5 5 5 4 4 4 4 3 3 3 2 2 1 1 1 1 0 -0 -1 -1 -1 -2 -2 -2 -3 -4 -5 -5 -5 -5 -6 -6 -6 -6 -6 -6 -5 -4 -4 -4 -4
5 5 5 5 4 4 4 4 3 3 3 2 2 2 1 1 1 0 0 -0 -1 -1 -2 -2 -2 -3 -3 -4 -5 -5 -5 -6 -6 -6 -6 -6 -6 -6 -6 -6 -5 -5 -4 -4
5 5 4 4 4 4 3 3 3 3 2 2 2 1 1 0 0 -0 -0 -1 -1 -2 -2 -2 -3 -3 -4 -5 -5 -6 -6 -6 -6 -6 -6 -6 -6 -6 -6 -6 -6 -5 -5 -5
4 4 4 4 3 3 3 2 2 2 2 1 1 1 0 -0 -0 -1 -1 -2 -2 -2 -3 -3 -4 -4 -5 -5 -6 -6 -6 -6 -6 -6 -6 -6 -6 -6 -6 -6 -6 -6 -6 -5
4 3 3 3 3 2 2 2 1 1 1 1 1 0 -0 -1 -1 -1 -1 -2 -3 -3 -3 -4 -4 -5 -5 -6 -6 -7 -6 -6 -6 -6 -6 -6 -6 -6 -6 -6 -6 -6 -6 -6
3 3 2 2 2 2 2 1 1 1 1 0 -0 -0 -1 -1 -1 -2 -2 -2 -3 -3 -3 -4 -5 -5 -6 -6 -7 -7 -7 -7 -7 -7 -6 -6 -6 -6 -6 -6 -6 -6 -6 -6
2 2 2 2 2 1 1 1 1 0 0 -0 -1 -1 -1 -1 -2 -2 -3 -3 -3 -4 -4 -5 -5 -6 -6 -6 -7 -7 -7 -7 -7 -7 -6 -6 -6 -6 -6 -7 -7 -7 -7 -7
2 2 2 1 1 1 1 0 0 -0 -0 -1 -1 -1 -2 -2 -2 -3 -3 -3 -4 -4 -5 -5 -6 -6 -7 -7 -7 -7 -7 -7 -7 -7 -7 -6 -7 -7 -7 -7 -7 -7 -7 -7
1 1 1 1 0 0 0 -0 -1 -1 -1 -1 -2 -2 -2 -2 -3 -3 -4 -4 -4 -5 -6 -6 -7 -7 -7 -7 -7 -7 -7 -7 -7 -7 -7 -7 -7 -7 -7 -7 -7 -7 -7 -7
0 0 -0 -0 -0 -0 -1 -1 -1 -1 -2 -2 -2 -2 -3 -3 -3 -4 -4 -5 -5 -6 -6 -7 -7 -7 -8 -7 -7 -7 -7 -7 -7 -7 -7 -7 -7 -7 -7 -7 -7 -7 -8 -8
-0 -1 -1 -1 -1 -1 -1 -1 -2 -2 -2 -3 -3 -3 -3 -4 -4 -4 -5 -5 -6 -6 -7 -7 -7 -8 -8 -8 -8 -8 -8 -8 -8 -8 -8 -8 -8 -8 -8 -8 -8 -8 -8 -8
-1 -1 -1 -1 -2 -2 -2 -2 -2 -3 -3 -3 -3 -3 -4 -4 -4 -5 -5 -6 -6 -6 -7 -7 -8 -8 -8 -8 -8 -8 -8 -8 -8 -8 -8 -8 -8 -8 -8 -8 -8 -8 -8 -8
-2 -2 -2 -2 -3 -3 -3 -3 -3 -3 -3 -3 -3 -4 -4 -4 -5 -5 -6 -6 -6 -7 -7 -7 -8 -8 -8 -9 -9 -9 -8 -8 -8 -8 -8 -8 -8 -8 -8 -8 -8 -8 -8 -8
-2 -3 -3 -3 -3 -3 -4 -4 -4 -4 -4 -4 -4 -4 -4 -5 -5 -6 -6 -7 -7 -7 -8 -8 -8 -9 -9 -9 -9 -9 -9 -9 -8 -8 -8 -8 -8 -8 -8 -8 -8 -8 -8 -8
-3 -3 -3 -3 -3 -4 -4 -5 -5 -5 -5 -5 -5 -5 -5 -6 -6 -7 -7 -7 -8 -8 -8 -9 -9 -9 -9 -9 -9 -9 -9 -9 -9 -8 -8 -8 -8 -8 -8 -8 -8 -7 -7 -7

GEFSNGP_850_meantemp_078.txt.gz
Temperature
11 11 11 11 11 9 8 8 9 9 8 9 9 8 9 9 9 9 8 8 7 7 6 6 5 5 5 5 5 4 4 4 4 4 4 3 3 3 3 3 2 2 2 1
10 10 9 9 9 9 8 8 8 8 8 8 8 8 8 8 8 8 8 7 6 6 5 5 4 4 4 4 4 4 4 4 3 3 3 3 2 2 2 2 1 1 1 0
8 8 9 8 9 9 8 7 7 8 8 7 6 7 8 8 8 7 7 6 5 5 5 4 4 3 3 3 3 3 3 3 3 2 2 2 1 1 1 0 0 -0 -0 -1
7 9 9 10 10 9 8 8 7 7 7 7 7 8 8 8 7 6 6 5 5 4 4 4 3 3 3 3 3 3 2 2 2 1 1 1 0 0 -0 -1 -1 -2 -2 -2
6 7 7 8 8 8 7 7 7 6 6 7 7 6 6 7 6 5 5 4 4 4 4 3 3 3 3 3 2 2 2 1 1 0 0 -0 -1 -1 -1 -2 -2 -2 -3 -3
5 6 7 9 9 9 8 7 6 6 6 6 5 4 5 6 5 5 4 4 4 3 3 3 3 2 2 2 1 1 1 1 0 -0 -1 -1 -2 -2 -2 -3 -3 -4 -4 -4
5 6 7 8 8 8 8 8 7 7 6 6 5 5 5 5 4 4 4 3 3 3 3 3 2 1 1 1 1 0 0 -0 -0 -1 -2 -2 -3 -3 -4 -4 -4 -5 -5 -5
5 5 7 8 7 7 7 7 7 7 6 6 5 5 4 4 4 3 3 3 3 2 2 2 2 1 1 0 0 -0 -0 -1 -1 -2 -2 -3 -3 -4 -4 -5 -5 -6 -6 -6
6 7 7 7 7 7 8 7 6 6 5 5 4 4 4 3 3 3 3 2 2 2 2 2 1 0 -0 -0 -1 -1 -1 -1 -2 -2 -3 -3 -4 -5 -5 -6 -6 -6 -6 -6
4 5 6 6 7 7 7 6 6 5 5 4 4 3 3 3 3 2 2 2 1 1 1 1 1 0 -1 -1 -1 -2 -2 -2 -3 -3 -3 -4 -5 -6 -6 -6 -7 -7 -6 -6
4 4 5 5 6 6 5 5 5 4 4 3 3 3 3 2 2 2 2 1 1 1 0 0 -0 -0 -1 -2 -2 -3 -3 -3 -4 -4 -5 -5 -6 -6 -7 -7 -7 -6 -6 -6
5 5 4 5 6 5 5 4 4 3 3 3 3 2 2 2 2 1 1 1 1 0 -0 -0 -1 -1 -1 -2 -3 -4 -4 -4 -5 -5 -6 -6 -7 -7 -6 -6 -6 -6 -6 -6
5 6 5 5 5 4 4 3 3 3 3 2 2 2 2 1 1 1 1 0 -0 -0 -1 -1 -1 -2 -2 -3 -3 -4 -5 -5 -6 -6 -7 -7 -7 -7 -7 -6 -6 -6 -6 -6
5 5 4 4 4 3 3 3 3 2 2 2 2 2 1 1 1 1 0 -0 -1 -1 -1 -1 -2 -2 -2 -3 -4 -4 -5 -6 -6 -7 -7 -7 -7 -7 -7 -7 -7 -7 -6 -6
4 4 4 3 3 2 2 2 2 2 2 2 2 1 1 1 0 0 -0 -1 -1 -1 -1 -2 -2 -2 -3 -4 -4 -5 -6 -6 -7 -7 -7 -7 -7 -7 -8 -8 -8 -8 -7 -7
3 3 3 2 2 2 2 2 2 2 2 1 1 1 1 0 -0 -0 -1 -1 -2 -2 -2 -2 -3 -3 -3 -4 -5 -6 -6 -6 -7 -8 -8 -7 -7 -8 -8 -8 -8 -8 -8 -7
2 2 2 2 2 2 2 1 1 1 1 1 1 0 -0 -0 -1 -1 -1 -2 -2 -2 -2 -3 -3 -4 -4 -5 -6 -6 -6 -7 -7 -8 -8 -8 -8 -8 -8 -8 -8 -8 -8 -8
2 2 2 2 1 1 1 1 1 1 0 0 -0 -0 -1 -1 -2 -2 -2 -2 -2 -2 -2 -3 -4 -4 -5 -5 -6 -6 -7 -7 -8 -8 -8 -8 -8 -8 -8 -8 -8 -8 -8 -8
2 1 1 1 1 1 1 1 0 0 -0 -0 -1 -1 -1 -2 -2 -2 -3 -3 -3 -3 -3 -4 -4 -5 -5 -6 -6 -7 -7 -8 -8 -8 -8 -8 -8 -8 -8 -8 -8 -8 -8 -8
1 1 1 1 1 0 0 0 -0 -1 -1 -1 -2 -2 -2 -2 -3 -3 -3 -3 -3 -4 -4 -4 -5 -5 -6 -6 -7 -7 -8 -8 -8 -8 -8 -9 -9 -9 -8 -8 -9 -9 -8 -8
1 1 1 0 0 0 -0 -1 -1 -1 -2 -2 -2 -2 -3 -3 -3 -4 -4 -4 -4 -4 -5 -5 -5 -6 -6 -7 -7 -8 -8 -8 -8 -9 -9 -9 -9 -9 -9 -9 -9 -9 -9 -8
0 0 -0 -0 -1 -1 -1 -1 -2 -2 -2 -2 -3 -3 -3 -4 -4 -4 -4 -4 -4 -5 -5 -6 -6 -7 -7 -8 -8 -8 -8 -9 -9 -9 -9 -9 -9 -9 -9 -9 -9 -9 -9 -8
-1 -1 -1 -1 -1 -2 -2 -2 -2 -3 -3 -3 -3 -4 -4 -4 -5 -5 -5 -5 -5 -6 -6 -6 -7 -7 -8 -8 -8 -8 -9 -9 -9 -9 -9 -9 -9 -9 -9 -9 -9 -9 -8 -8
-1 -1 -1 -2 -2 -2 -2 -2 -3 -3 -4 -4 -4 -4 -5 -5 -5 -5 -5 -6 -6 -6 -7 -7 -7 -8 -8 -8 -9 -9 -9 -9 -10 -10 -10 -10 -10 -9 -9 -9 -9 -9 -8 -8
-2 -2 -2 -2 -3 -3 -3 -3 -4 -4 -4 -4 -4 -5 -5 -6 -6 -6 -6 -6 -6 -7 -7 -7 -8 -8 -9 -9 -9 -10 -10 -10 -10 -10 -10 -10 -10 -10 -9 -9 -9 -9 -8 -8
-2 -2 -3 -3 -3 -4 -4 -5 -5 -5 -5 -5 -5 -5 -6 -6 -6 -7 -7 -7 -7 -8 -8 -8 -9 -9 -9 -10 -10 -10 -10 -10 -10 -10 -10 -10 -10 -10 -9 -9 -9 -9 -8 -8
-3 -3 -3 -3 -4 -4 -5 -5 -6 -6 -6 -7 -7 -7 -7 -7 -7 -7 -8 -8 -8 -9 -9 -9 -10 -10 -10 -10 -11 -11 -11 -11 -10 -10 -10 -10 -10 -10 -9 -9 -9 -9 -8 -8

GEFSNGP_850_meantemp_084.txt.gz
Temperature
16 14 14 15 15 13 14 16 16 17 17 17 16 15 13 11 9 9 8 7 8 7 7 6 6 5 5 5 4 4 4 4 3 3 3 3 3 2 2 2 1 1 0 -0
14 12 12 13 14 14 14 15 15 16 16 16 13 12 11 10 9 8 7 7 7 7 6 6 5 5 5 4 4 4 3 3 3 3 2 2 2 2 1 0 -0 -1 -1 -1
15 12 12 14 15 14 14 14 14 14 15 13 11 10 10 9 8 8 7 7 6 6 5 5 5 4 4 4 3 3 3 3 2 2 1 1 1 0 -0 -1 -1 -2 -2 -2
13 12 12 16 13 13 13 13 13 13 12 11 10 9 8 8 7 7 6 6 6 5 5 4 4 4 3 3 3 2 2 2 1 1 1 0 -0 -1 -1 -2 -2 -3 -3 -3
12 13 14 15 12 11 12 13 12 11 10 9 7 7 7 6 6 6 6 5 5 5 4 4 3 3 3 2 2 2 1 1 0 -0 -1 -1 -1 -2 -2 -3 -3 -3 -4 -4
11 11 12 15 11 10 11 12 11 10 9 8 7 10 9 6 6 5 5 5 4 4 4 3 3 2 2 2 1 1 1 0 -0 -1 -1 -2 -2 -2 -3 -3 -4 -4 -5 -5
11 11 13 13 9 10 12 13 9 8 8 7 8 9 7 6 5 5 5 4 4 3 3 3 2 2 1 1 1 0 -0 -0 -1 -1 -2 -2 -3 -3 -4 -4 -5 -5 -6 -6
11 11 12 10 9 11 12 8 8 8 7 7 7 6 6 5 5 4 4 4 3 3 3 2 2 1 1 0 0 -0 -1 -1 -1 -2 -2 -3 -3 -4 -4 -5 -6 -6 -6 -6
12 12 10 8 9 9 8 8 7 7 7 7 6 5 5 4 4 4 4 3 3 2 2 2 1 1 0 -0 -1 -1 -1 -2 -2 -2 -3 -4 -4 -5 -5 -6 -6 -6 -7 -7
9 9 8 7 7 8 8 7 7 7 7 6 5 5 4 4 4 3 3 3 2 2 1 1 1 0 -0 -1 -1 -2 -2 -2 -3 -3 -4 -4 -5 -6 -6 -6 -7 -7 -7 -7
9 8 7 6 6 7 7 7 7 6 6 5 5 4 4 3 3 3 3 2 2 1 1 0 -0 -0 -1 -1 -2 -2 -3 -3 -3 -4 -5 -5 -6 -6 -7 -7 -7 -7 -7 -7
10 9 8 7 6 6 6 6 6 5 4 4 4 3 3 3 3 2 2 2 1 1 0 -0 -1 -1 -1 -2 -2 -3 -3 -4 -4 -5 -5 -6 -6 -7 -7 -7 -7 -7 -7 -7
8 7 6 6 6 6 5 5 4 4 4 4 3 3 3 2 2 2 2 1 0 -0 -0 -1 -1 -1 -2 -2 -3 -3 -4 -4 -5 -5 -6 -6 -7 -7 -7 -7 -7 -7 -7 -7
6 6 5 5 5 5 4 4 4 3 3 3 3 2 2 2 2 1 1 0 -0 -1 -1 -1 -2 -2 -2 -3 -3 -4 -4 -5 -5 -6 -7 -7 -7 -8 -8 -8 -8 -8 -7 -7
5 5 5 4 4 4 3 3 3 3 3 2 2 2 1 1 1 1 0 -0 -1 -1 -1 -2 -2 -2 -3 -3 -4 -4 -5 -5 -6 -7 -7 -7 -8 -8 -8 -8 -8 -8 -8 -8
4 4 4 4 3 3 3 3 2 2 2 2 2 1 1 0 0 0 -0 -1 -2 -2 -2 -2 -3 -3 -3 -4 -4 -5 -5 -6 -6 -7 -7 -8 -8 -8 -8 -8 -8 -8 -8 -8
3 2 2 2 2 2 2 2 2 2 1 1 1 0 0 -0 -0 -1 -1 -2 -2 -2 -2 -3 -3 -3 -4 -4 -5 -6 -6 -6 -7 -7 -8 -8 -8 -8 -9 -9 -9 -9 -9 -9
4 4 3 3 2 2 2 2 1 1 1 0 0 -0 -1 -1 -1 -2 -2 -2 -2 -2 -3 -3 -4 -4 -4 -5 -5 -6 -7 -7 -8 -8 -8 -8 -8 -9 -9 -9 -9 -9 -9 -9
2 2 2 2 2 2 1 1 1 0 0 -0 -1 -1 -1 -1 -2 -2 -3 -3 -3 -4 -3 -4 -4 -5 -5 -5 -6 -7 -7 -8 -8 -8 -8 -9 -9 -9 -9 -9 -9 -9 -9 -9
2 1 1 1 1 1 1 0 0 -0 -0 -1 -1 -1 -2 -2 -2 -3 -3 -4 -4 -4 -5 -5 -5 -6 -6 -6 -7 -7 -8 -8 -8 -9 -9 -9 -9 -10 -10 -10 -10 -10 -10 -9
1 1 1 1 0 0 0 -0 -1 -1 -1 -1 -2 -2 -3 -3 -3 -4 -4 -5 -4 -5 -5 -6 -6 -6 -7 -7 -8 -8 -8 -8 -9 -9 -9 -10 -10 -10 -10 -10 -10 -10 -10 -10
0 0 0 0 -0 -0 -1 -1 -1 -2 -2 -2 -2 -3 -3 -3 -4 -4 -5 -5 -5 -6 -6 -7 -7 -7 -7 -8 -8 -9 -9 -9 -9 -10 -10 -10 -10 -10 -11 -10 -10 -10 -10 -10
-0 -0 -0 -1 -1 -1 -1 -1 -2 -2 -2 -3 -3 -3 -4 -4 -5 -5 -6 -6 -6 -7 -7 -7 -7 -8 -8 -9 -9 -9 -9 -10 -10 -10 -11 -11 -11 -11 -11 -11 -11 -10 -10 -10
-1 -1 -1 -1 -2 -2 -2 -2 -2 -2 -3 -3 -3 -4 -4 -5 -5 -6 -6 -6 -7 -7 -7 -7 -8 -8 -9 -9 -10 -10 -10 -11 -11 -11 -11 -11 -11 -11 -11 -11 -11 -11 -11 -10
-1 -1 -2 -2 -2 -2 -2 -3 -3 -3 -3 -4 -4 -4 -5 -6 -6 -6 -7 -7 -7 -8 -8 -8 -9 -9 -9 -10 -10 -11 -11 -11 -11 -11 -11 -11 -11 -11 -11 -11 -11 -11 -11 -10
-2 -2 -2 -2 -3 -3 -3 -3 -4 -4 -4 -5 -5 -5 -6 -6 -7 -7 -7 -8 -8 -8 -9 -9 -9 -10 -10 -11 -11 -11 -11 -12 -12 -12 -12 -12 -12 -12 -11 -11 -11 -11 -11 -10
-2 -2 -3 -3 -3 -3 -4 -4 -5 -5 -5 -6 -6 -6 -7 -7 -8 -8 -8 -9 -9 -9 -10 -10 -10 -11 -11 -11 -12 -12 -12 -12 -12 -12 -12 -12 -12 -12 -12 -11 -11 -11 -11 -10

GEFSNGP_850_meantemp_090.txt.gz
Temperature
17 17 17 17 16 15 15 15 15 16 16 17 16 15 15 15 14 13 12 11 10 9 9 8 7 7 7 6 6 6 5 5 5 4 4 3 3 3 2 2 2 1 1 0
16 16 16 15 15 15 15 15 15 15 15 16 16 16 15 14 13 12 11 10 9 9 8 7 7 6 6 6 5 5 5 4 4 3 3 3 2 2 2 1 1 0 -0 -1
14 15 14 13 14 15 15 15 15 14 15 15 14 14 14 13 13 12 11 10 9 8 7 7 6 6 6 5 5 5 4 4 3 3 2 2 2 1 1 0 -0 -1 -1 -1
13 14 11 15 16 16 16 16 16 15 14 14 13 13 13 12 12 11 10 9 8 7 6 6 6 5 5 5 5 4 4 3 3 2 2 1 1 1 0 -0 -1 -1 -2 -2
12 12 12 15 14 14 14 14 15 15 14 12 11 10 10 11 10 10 9 8 7 6 6 5 5 5 5 4 4 3 3 2 2 1 1 1 0 -0 -1 -1 -2 -2 -2 -3
11 11 11 14 13 14 14 12 14 13 12 10 10 7 8 9 9 8 8 7 6 6 5 5 5 4 4 4 3 3 2 2 1 1 0 -0 -1 -1 -1 -2 -2 -3 -3 -3
10 10 11 13 12 13 11 12 12 13 12 10 9 8 9 8 8 7 7 6 6 5 5 5 4 4 3 3 3 2 1 1 1 0 -0 -1 -1 -2 -2 -2 -3 -3 -4 -4
10 10 10 10 11 11 11 11 12 12 11 10 9 8 8 7 6 6 6 5 5 5 4 4 4 3 3 2 2 1 1 1 0 -0 -1 -1 -2 -2 -2 -3 -3 -4 -4 -5
12 11 12 12 12 12 12 11 11 11 10 9 8 7 7 6 5 5 5 5 4 4 4 4 3 2 2 2 1 1 0 -0 -0 -1 -1 -2 -2 -3 -3 -4 -4 -4 -5 -6
12 12 11 12 11 11 11 10 10 10 9 9 8 7 6 5 5 5 4 4 4 4 3 3 2 2 1 1 0 -0 -1 -1 -1 -2 -2 -2 -3 -3 -4 -4 -5 -5 -6 -6
11 11 11 11 11 10 10 9 9 9 8 8 7 6 5 5 4 4 4 4 3 3 3 2 2 1 1 0 -0 -1 -1 -1 -2 -2 -3 -3 -3 -4 -5 -5 -6 -6 -6 -6
10 11 10 10 10 10 9 8 8 8 7 6 6 6 5 4 4 4 3 3 3 2 2 2 1 1 0 -0 -1 -2 -2 -2 -2 -3 -3 -4 -4 -4 -5 -6 -6 -6 -7 -7
11 11 11 10 9 9 8 7 7 7 6 6 5 5 4 4 3 3 3 2 2 2 1 1 0 0 -0 -1 -2 -2 -3 -3 -3 -3 -4 -4 -5 -6 -6 -6 -6 -7 -7 -7
10 10 8 8 8 7 7 6 6 5 5 5 4 4 3 3 3 3 2 2 1 1 1 0 -0 -0 -1 -2 -2 -3 -3 -3 -4 -4 -5 -5 -6 -6 -7 -7 -7 -7 -7 -7
8 8 8 7 6 6 5 5 5 4 4 4 3 3 3 2 2 2 2 1 1 1 0 -0 -1 -1 -1 -2 -3 -3 -4 -4 -4 -5 -5 -6 -6 -7 -7 -7 -8 -8 -8 -8
6 6 6 5 5 4 4 4 4 3 3 3 3 2 2 2 2 1 1 1 -0 -0 -1 -1 -1 -1 -2 -3 -4 -4 -4 -5 -5 -6 -6 -7 -7 -7 -8 -8 -8 -8 -8 -8
5 4 4 4 4 3 3 3 3 3 3 2 2 2 1 1 1 1 1 -0 -1 -1 -1 -1 -2 -2 -3 -4 -4 -5 -5 -5 -6 -7 -7 -7 -8 -8 -8 -8 -8 -9 -9 -9
5 5 5 4 4 3 3 2 2 2 2 2 1 1 1 1 0 0 -0 -1 -1 -1 -1 -2 -2 -3 -4 -4 -5 -5 -6 -6 -7 -7 -8 -8 -8 -8 -8 -8 -9 -9 -9 -9
4 4 4 3 3 3 2 2 2 2 1 1 1 1 0 0 -0 -1 -1 -1 -2 -2 -2 -2 -3 -4 -4 -5 -6 -6 -7 -7 -7 -8 -8 -8 -8 -9 -9 -9 -9 -10 -10 -10
3 3 3 2 2 2 2 2 1 1 1 1 0 -0 -0 -1 -1 -1 -2 -2 -2 -2 -3 -4 -4 -5 -5 -6 -6 -7 -7 -8 -8 -8 -9 -9 -9 -9 -9 -10 -10 -10 -10 -10
2 2 2 2 1 1 1 1 1 1 0 -0 -0 -1 -1 -1 -2 -2 -3 -3 -2 -3 -4 -4 -5 -5 -6 -6 -7 -8 -8 -8 -9 -9 -9 -9 -10 -10 -10 -10 -10 -11 -11 -11
1 1 1 1 1 1 1 0 0 -0 -0 -1 -1 -1 -2 -2 -2 -3 -3 -3 -3 -4 -5 -5 -6 -6 -7 -7 -8 -8 -8 -9 -9 -10 -10 -10 -10 -10 -11 -11 -11 -11 -11 -11
1 1 1 0 0 0 0 -0 -1 -1 -1 -1 -2 -2 -2 -3 -3 -4 -4 -4 -5 -5 -6 -6 -6 -7 -7 -8 -8 -9 -9 -10 -10 -10 -11 -11 -11 -11 -11 -11 -12 -12 -12 -12
0 0 0 -0 -0 -0 -1 -1 -1 -2 -2 -2 -2 -3 -3 -4 -4 -4 -5 -5 -6 -6 -7 -7 -7 -8 -8 -9 -9 -9 -10 -10 -11 -11 -11 -11 -12 -12 -12 -12 -12 -12 -12 -12
-0 -0 -0 -1 -1 -1 -1 -2 -2 -2 -2 -3 -3 -4 -4 -5 -5 -5 -6 -6 -6 -7 -7 -7 -8 -9 -9 -9 -10 -10 -11 -11 -11 -11 -12 -12 -12 -12 -12 -13 -13 -13 -13 -13
-1 -1 -1 -1 -2 -2 -2 -3 -3 -3 -3 -4 -4 -4 -5 -5 -6 -6 -6 -7 -7 -8 -8 -9 -9 -9 -10 -10 -11 -11 -11 -12 -12 -12 -12 -12 -12 -13 -13 -13 -13 -13 -13 -13
-1 -2 -2 -2 -2 -3 -3 -3 -4 -4 -4 -5 -5 -5 -6 -6 -7 -7 -7 -8 -8 -9 -9 -10 -10 -10 -11 -11 -11 -12 -12 -12 -12 -12 -12 -13 -13 -13 -13 -13 -13 -13 -13 -13

GEFSNGP_850_meantemp_096.txt.gz
Temperature
13 14 12 12 13 12 12 12 12 12 12 14 13 12 14 14 14 13 12 12 12 11 11 10 10 9 8 8 8 7 6 6 5 5 5 4 4 3 3 2 2 2 1 1
13 13 13 13 13 12 12 13 12 12 12 13 14 14 13 13 12 12 12 12 12 11 11 10 9 9 8 8 7 6 6 5 5 4 4 3 3 2 2 2 1 1 1 0
11 13 13 12 13 13 12 12 12 13 14 13 12 11 12 13 13 13 13 12 11 11 10 10 9 8 8 7 6 6 5 5 4 4 3 3 2 2 2 1 1 1 0 -0
10 11 11 12 13 13 13 13 12 12 12 12 12 13 13 13 13 13 12 12 11 10 10 9 8 8 7 6 6 5 5 4 4 3 3 2 2 1 1 1 0 0 -0 -1
8 9 10 11 12 12 12 12 12 12 11 11 10 10 11 12 12 13 12 11 11 10 9 8 7 7 6 6 5 5 4 4 3 3 2 2 1 1 0 0 -0 -1 -1 -1
7 9 9 12 13 13 13 12 12 11 9 9 9 9 9 12 12 11 11 10 9 9 8 7 7 6 6 5 5 4 4 3 3 2 2 1 1 0 -0 -1 -1 -1 -1 -2
7 8 9 11 12 12 12 12 13 12 11 10 9 10 12 11 11 10 10 9 8 8 7 6 6 5 5 4 4 3 3 2 2 2 1 1 0 -0 -1 -1 -1 -2 -2 -2
7 8 9 10 10 11 12 12 13 13 13 12 12 11 11 10 10 9 8 8 7 7 6 6 5 5 4 4 3 3 2 2 2 1 1 0 -1 -1 -1 -2 -2 -2 -2 -2
9 10 11 12 12 13 13 13 13 13 13 12 11 11 10 9 8 8 7 7 6 6 5 5 4 4 3 3 2 2 2 1 1 1 0 -1 -1 -2 -2 -2 -3 -3 -3 -4
8 8 10 11 12 13 13 13 13 13 13 12 11 10 9 8 7 7 6 6 5 5 5 4 4 3 3 2 2 1 1 1 0 -0 -1 -1 -2 -2 -3 -3 -3 -4 -4 -5
8 9 9 10 12 12 12 12 12 12 11 11 10 9 8 7 7 6 5 5 4 4 4 3 3 3 2 2 1 1 0 0 -0 -1 -1 -2 -2 -3 -3 -4 -4 -5 -6 -6
9 9 9 11 13 12 12 12 11 11 10 10 9 9 8 7 6 5 5 4 4 3 3 3 2 2 2 1 0 -0 -0 -1 -1 -2 -2 -3 -3 -3 -3 -4 -5 -6 -6 -7
12 13 12 12 12 12 11 11 10 10 10 9 8 7 7 6 5 4 4 3 3 3 2 2 2 1 1 0 -0 -1 -1 -1 -2 -2 -3 -3 -4 -4 -5 -4 -5 -6 -6 -7
12 12 10 11 11 11 10 10 9 8 8 7 7 6 5 5 4 3 3 3 2 2 2 1 1 1 0 -0 -1 -1 -2 -2 -3 -3 -4 -4 -5 -5 -6 -6 -6 -6 -7 -7
11 11 11 10 10 9 9 8 7 7 6 6 5 5 4 4 3 3 2 2 2 2 1 1 0 0 -0 -1 -1 -2 -2 -3 -3 -4 -4 -5 -6 -6 -7 -7 -7 -8 -8 -8
9 9 9 9 8 8 7 7 6 6 5 5 4 4 3 3 3 2 2 1 1 1 1 0 -0 -1 -1 -1 -2 -3 -3 -4 -4 -5 -5 -6 -6 -7 -7 -8 -8 -8 -9 -9
8 7 7 7 7 6 6 6 6 5 4 4 3 3 2 2 2 2 1 1 1 0 -0 -1 -1 -1 -2 -2 -3 -3 -4 -4 -5 -6 -6 -7 -7 -8 -8 -8 -9 -9 -9 -9
8 8 8 7 7 6 5 5 4 4 3 3 2 2 2 1 1 1 1 0 -0 -0 -1 -1 -2 -2 -2 -3 -4 -4 -5 -5 -6 -6 -7 -8 -8 -8 -9 -9 -9 -9 -10 -10
6 6 6 5 5 5 4 4 3 3 2 2 2 1 1 1 0 0 -0 -0 -1 -1 -1 -2 -2 -3 -3 -4 -5 -5 -6 -6 -7 -7 -8 -8 -9 -9 -9 -10 -10 -10 -10 -10
5 5 5 4 4 4 3 3 2 2 1 1 1 1 0 0 -0 -1 -1 -1 -1 -2 -3 -3 -3 -4 -4 -5 -5 -6 -7 -7 -8 -8 -9 -9 -9 -10 -10 -10 -10 -11 -11 -11
4 4 3 3 3 2 2 2 1 1 1 0 0 -0 -0 -1 -1 -1 -2 -2 -2 -3 -3 -4 -4 -5 -5 -6 -6 -7 -8 -8 -9 -9 -9 -10 -10 -10 -11 -11 -11 -11 -11 -12
2 2 2 2 2 1 1 1 1 0 0 -0 -1 -1 -1 -1 -2 -2 -2 -3 -3 -4 -4 -5 -5 -5 -6 -7 -8 -8 -8 -9 -9 -10 -10 -10 -11 -11 -11 -11 -12 -12 -12 -12
2 2 1 1 1 0 0 -0 -0 -0 -1 -1 -1 -2 -2 -2 -3 -3 -3 -4 -4 -5 -5 -5 -6 -7 -7 -8 -8 -9 -9 -9 -10 -10 -11 -11 -11 -12 -12 -12 -12 -12 -12 -12
1 1 0 0 0 -0 -0 -1 -1 -1 -1 -2 -2 -2 -3 -3 -3 -4 -4 -5 -5 -5 -6 -6 -7 -7 -8 -8 -9 -9 -10 -10 -10 -11 -11 -12 -12 -12 -12 -12 -12 -13 -13 -13
0 -0 -0 -0 -1 -1 -1 -1 -2 -2 -2 -2 -2 -3 -3 -4 -4 -4 -5 -5 -6 -6 -6 -7 -7 -8 -8 -9 -9 -10 -10 -11 -11 -12 -12 -12 -12 -12 -13 -13 -13 -13 -13 -13
-1 -1 -1 -1 -1 -2 -2 -2 -2 -3 -3 -3 -3 -3 -4 -4 -5 -5 -6 -6 -6 -7 -7 -8 -8 -8 -9 -9 -10 -10 -11 -11 -11 -12 -12 -12 -13 -13 -13 -13 -13 -13 -13 -13
-1 -1 -2 -2 -2 -2 -3 -3 -3 -3 -4 -4 -4 -4 -5 -5 -6 -6 -6 -7 -7 -8 -8 -8 -9 -9 -10 -10 -11 -11 -11 -12 -12 -12 -12 -13 -13 -13 -13 -13 -13 -13 -13 -13

GEFSNGP_850_meantemp_102.txt.gz
Temperature
11 11 10 10 11 10 10 10 10 10 10 13 13 13 14 15 15 15 15 14 14 14 13 12 11 11 10 10 9 9 8 8 7 7 6 6 5 5 4 4 4 3 3 2
11 11 10 11 10 10 10 10 10 10 11 12 13 13 13 14 14 14 15 15 14 14 13 12 12 11 10 10 9 8 8 7 7 6 6 5 5 4 4 4 3 3 2 2
9 11 10 10 10 10 9 9 10 11 12 13 12 11 12 14 14 15 15 15 14 14 13 12 12 11 10 9 9 8 7 7 6 6 5 5 4 4 4 3 3 2 2 1
8 10 9 11 11 11 11 10 10 10 11 12 11 13 14 14 14 15 15 14 14 13 13 12 11 10 9 9 8 7 7 6 6 5 5 4 4 4 3 2 2 2 1 1
7 8 8 10 10 10 10 10 10 10 11 11 11 11 12 14 14 14 14 14 13 13 12 11 10 9 9 8 7 7 6 6 5 5 4 4 3 3 2 2 1 1 1 0
6 8 9 11 12 11 11 11 11 10 10 9 9 10 11 14 14 14 13 13 12 12 11 10 9 8 8 7 7 6 6 5 5 4 4 3 3 2 2 1 1 0 0 -0
7 8 8 10 10 11 11 12 13 12 11 10 9 11 13 13 13 13 12 12 11 10 10 9 8 7 7 6 6 6 5 5 4 4 3 3 2 2 1 1 0 0 -0 -0
6 7 8 10 9 10 11 13 13 13 13 12 12 12 12 12 12 12 11 11 10 9 9 8 7 7 6 6 5 5 4 4 4 3 2 2 1 1 1 0 -0 -1 -1 -1
8 10 10 11 12 13 13 13 14 14 14 14 13 12 12 12 11 11 10 10 9 8 7 7 6 6 5 5 4 4 4 3 3 2 2 1 1 0 -0 -1 -1 -1 -2 -2
7 7 8 11 12 13 13 14 14 14 14 14 13 13 12 11 10 10 9 9 8 7 6 6 5 5 5 4 4 3 3 3 2 2 1 1 0 -0 -1 -1 -2 -2 -3 -3
7 7 8 10 12 14 14 13 13 13 13 13 12 12 11 10 10 9 8 7 7 6 6 5 5 4 4 3 3 3 2 2 1 1 0 0 -0 -1 -2 -2 -3 -3 -4 -4
8 8 9 11 14 14 14 13 13 13 12 12 12 11 11 10 9 8 7 7 6 5 5 4 4 4 3 3 2 2 2 1 1 0 -0 -1 -1 -2 -2 -3 -3 -4 -4 -5
12 13 13 13 13 13 13 13 13 12 12 11 11 10 10 9 8 7 6 6 5 5 4 4 3 3 2 2 2 1 1 0 -0 -1 -1 -2 -2 -3 -3 -3 -4 -4 -5 -5
12 12 11 12 13 13 12 12 11 11 10 10 10 9 8 8 7 6 5 5 4 4 3 3 3 2 2 1 1 1 0 -0 -1 -2 -2 -3 -3 -4 -4 -5 -5 -5 -5 -6
11 11 11 12 12 11 11 11 10 10 9 9 8 8 7 7 6 5 5 4 3 3 3 2 2 2 1 1 0 -0 -1 -1 -2 -2 -3 -3 -4 -5 -5 -6 -6 -7 -7 -7
10 10 10 10 10 10 10 10 9 9 8 8 7 7 6 6 5 4 4 3 3 2 2 2 1 1 0 -0 -1 -1 -2 -2 -3 -3 -4 -4 -5 -6 -6 -7 -7 -8 -8 -8
9 8 8 9 9 9 9 9 9 8 8 7 6 6 5 4 4 3 3 2 2 2 1 1 1 0 -0 -1 -1 -2 -2 -3 -3 -4 -4 -5 -6 -6 -7 -8 -8 -9 -9 -9
10 10 10 10 9 9 8 7 7 7 6 6 5 4 4 3 3 3 2 2 1 1 1 0 -0 -1 -1 -2 -2 -3 -3 -4 -4 -5 -5 -6 -7 -7 -8 -8 -9 -9 -9 -9
8 8 8 8 8 7 7 6 6 5 5 4 4 3 3 2 2 2 1 1 1 0 -0 -1 -1 -2 -2 -3 -3 -4 -4 -5 -5 -6 -6 -7 -8 -8 -8 -9 -9 -10 -10 -10
6 6 6 6 6 6 6 5 5 4 4 3 3 2 2 1 1 1 0 0 -0 -1 -1 -2 -2 -2 -3 -3 -4 -5 -5 -5 -6 -7 -7 -8 -8 -9 -9 -10 -10 -10 -11 -11
5 5 5 5 5 4 4 4 4 3 2 2 2 1 1 0 0 -0 -1 -1 -1 -2 -2 -2 -3 -3 -4 -4 -5 -5 -6 -7 -7 -8 -8 -9 -9 -9 -10 -10 -10 -11 -11 -11
4 4 4 4 3 3 3 2 2 2 1 1 1 0 0 -0 -1 -1 -1 -2 -2 -3 -3 -3 -4 -4 -5 -6 -6 -7 -7 -8 -8 -8 -9 -9 -10 -10 -10 -11 -11 -11 -12 -12
3 3 2 2 2 2 1 1 1 1 0 0 -0 -1 -1 -1 -2 -2 -2 -2 -3 -3 -4 -4 -4 -5 -6 -6 -7 -7 -8 -8 -8 -9 -9 -10 -10 -11 -11 -11 -12 -12 -12 -12
1 1 1 1 1 1 0 -0 -0 -0 -1 -1 -1 -2 -2 -2 -2 -3 -3 -3 -4 -4 -5 -5 -5 -6 -7 -7 -7 -8 -8 -9 -9 -10 -10 -11 -11 -11 -12 -12 -12 -12 -12 -13
1 0 0 0 0 -0 -1 -1 -1 -1 -1 -2 -2 -2 -3 -3 -3 -4 -4 -4 -5 -5 -5 -6 -6 -7 -7 -7 -8 -8 -9 -9 -10 -11 -11 -11 -11 -12 -12 -12 -12 -13 -13 -13
-0 -0 -0 -1 -1 -1 -1 -1 -2 -2 -2 -2 -2 -3 -3 -4 -4 -4 -5 -5 -5 -6 -6 -7 -7 -7 -8 -8 -9 -9 -10 -10 -10 -11 -11 -11 -12 -12 -12 -12 -13 -13 -13 -13
-1 -1 -1 -1 -2 -2 -2 -2 -2 -3 -3 -3 -3 -4 -4 -4 -5 -5 -5 -6 -6 -7 -7 -7 -8 -8 -9 -9 -10 -10 -10 -11 -11 -11 -12 -12 -12 -12 -13 -13 -13 -13 -13 -13

GEFSNGP_850_meantemp_108.txt.gz
Temperature
16 16 15 15 15 14 15 16 16 17 17 18 18 19 18 17 16 15 14 14 15 15 14 13 13 12 12 11 11 10 10 10 9 9 8 8 7 7 6 6 6 5 5 4
14 14 14 14 15 15 15 16 16 16 16 18 18 18 17 16 16 15 14 15 15 15 14 14 13 13 12 11 11 10 10 9 9 8 8 7 7 6 6 5 5 5 4 4
14 13 12 13 15 15 15 15 16 16 17 18 17 17 16 16 15 15 14 15 15 15 15 14 14 13 12 11 10 10 9 9 8 8 7 7 6 6 5 5 4 4 4 3
13 12 11 15 16 16 15 16 16 16 17 17 17 16 15 15 14 14 14 15 15 15 14 14 13 12 11 10 10 9 9 8 8 7 7 6 6 5 5 4 4 4 3 3
12 12 13 14 13 14 14 15 16 15 16 16 14 13 14 14 14 14 14 14 14 14 14 13 13 12 11 10 9 9 8 8 7 7 6 6 5 5 4 4 3 3 2 2
12 12 12 15 15 13 14 15 17 15 15 15 13 14 16 15 14 14 14 14 14 14 13 13 12 11 10 10 9 8 8 7 7 6 6 5 5 4 4 3 3 2 2 2
12 12 14 15 12 13 14 16 16 15 14 14 13 15 14 14 14 14 14 13 13 13 12 12 11 11 10 9 8 8 7 6 6 5 5 5 4 4 3 3 2 2 1 1
12 12 13 12 11 14 16 15 14 14 13 13 13 13 13 13 13 13 13 13 12 12 12 11 10 10 9 8 7 7 6 6 5 5 4 4 3 3 2 2 1 1 1 0
14 14 15 12 13 15 15 14 14 14 14 14 13 13 13 13 13 12 12 12 12 11 11 10 9 9 8 7 7 6 6 5 5 4 4 3 3 2 2 1 1 0 -0 -1
12 13 13 12 12 13 14 14 15 15 15 14 14 14 13 13 12 12 12 11 11 10 10 9 8 8 7 6 6 5 5 4 4 4 3 3 2 2 1 1 -0 -1 -1 -2
13 12 11 11 12 13 14 14 14 14 14 14 14 13 13 13 12 12 11 10 10 9 9 8 7 7 6 5 5 4 4 4 3 3 2 2 1 1 0 -0 -1 -1 -2 -2
14 13 13 14 14 14 13 14 14 14 13 13 13 13 13 12 12 11 10 10 9 8 8 7 6 6 5 5 4 4 3 3 3 2 2 1 1 0 -0 -1 -1 -2 -2 -3
14 13 13 14 14 14 14 14 14 13 13 13 13 12 12 11 11 10 9 9 8 8 7 6 5 5 4 4 3 3 3 2 2 1 1 0 -0 -1 -1 -2 -2 -2 -3 -3
12 12 11 12 13 13 13 13 13 13 12 12 12 11 11 11 10 9 8 8 7 6 6 5 4 4 3 3 3 2 2 1 1 0 -0 -1 -1 -2 -2 -3 -3 -4 -4 -4
11 11 12 12 12 12 12 12 12 11 11 11 11 10 10 10 9 8 7 7 6 5 5 4 3 3 3 2 2 1 1 0 -0 -1 -1 -2 -2 -3 -3 -4 -4 -5 -5 -5
10 10 10 11 11 11 11 11 11 11 11 10 10 9 9 8 8 7 6 6 5 4 4 3 3 2 2 1 1 0 -0 -1 -1 -2 -2 -3 -3 -4 -4 -5 -5 -6 -6 -7
8 8 8 9 10 10 10 11 10 10 10 9 9 8 7 7 6 6 5 4 4 3 3 2 2 1 1 1 -0 -0 -1 -1 -2 -2 -3 -3 -4 -5 -5 -6 -6 -7 -7 -7
10 11 11 11 11 10 10 9 9 9 9 8 7 7 6 6 5 5 4 3 3 2 2 1 1 1 0 -0 -1 -1 -2 -2 -3 -3 -4 -4 -5 -6 -6 -7 -7 -8 -8 -8
9 9 9 9 10 10 9 9 8 8 7 7 6 6 5 4 4 3 3 2 2 1 1 0 0 -0 -1 -1 -2 -2 -3 -3 -4 -4 -5 -5 -6 -7 -7 -8 -8 -8 -9 -9
8 8 8 8 8 8 8 7 7 6 6 5 5 4 4 3 3 2 2 1 1 1 0 -0 -1 -1 -2 -2 -3 -3 -4 -4 -5 -5 -6 -6 -7 -8 -8 -8 -9 -9 -9 -10
7 7 7 7 7 7 6 6 6 5 4 4 4 3 3 2 2 1 1 0 -0 -0 -1 -1 -2 -2 -2 -3 -3 -4 -4 -5 -6 -6 -7 -7 -8 -8 -9 -9 -9 -10 -10 -10
5 6 6 6 6 5 5 4 4 4 3 2 2 2 2 1 0 -0 -0 -1 -1 -1 -2 -2 -2 -3 -3 -4 -4 -5 -5 -6 -6 -7 -8 -8 -9 -9 -9 -10 -10 -10 -11 -11
4 4 4 4 4 4 3 2 2 2 2 1 1 1 0 -0 -1 -1 -1 -1 -2 -2 -2 -3 -3 -4 -4 -5 -5 -6 -6 -7 -7 -8 -8 -9 -9 -10 -10 -10 -11 -11 -11 -11
2 2 2 2 2 2 1 1 1 1 0 0 -0 -0 -1 -1 -1 -2 -2 -2 -3 -3 -3 -4 -4 -4 -5 -5 -6 -6 -7 -7 -8 -9 -9 -9 -10 -10 -11 -11 -11 -11 -11 -12
1 1 0 0 0 0 -0 -0 -1 -1 -1 -1 -1 -2 -2 -2 -2 -2 -3 -3 -3 -4 -4 -4 -5 -5 -6 -6 -7 -7 -8 -8 -9 -9 -10 -10 -10 -11 -11 -11 -11 -11 -12 -12
-1 -1 -1 -1 -0 -1 -1 -1 -1 -2 -2 -2 -2 -2 -2 -3 -3 -3 -4 -4 -4 -5 -5 -5 -6 -6 -7 -7 -8 -8 -8 -9 -9 -9 -9 -10 -10 -11 -11 -11 -11 -12 -12 -12
-2 -2 -2 -2 -2 -2 -2 -2 -2 -2 -2 -2 -3 -3 -3 -4 -4 -4 -5 -5 -5 -6 -6 -6 -7 -7 -7 -8 -8 -8 -9 -9 -9 -10 -10 -10 -11 -11 -11 -11 -11 -12 -12 -12

GEFSNGP_850_meantemp_114.txt.gz
Temperature
15 16 15 15 15 15 15 15 15 15 16 17 17 17 18 19 19 18 17 16 15 15 14 13 12 12 12 11 11 11 10 10 10 10 10 10 9 9 9 8 8 8 7 7
14 15 16 15 15 15 15 16 15 16 16 18 19 19 18 19 18 18 17 16 16 15 14 14 13 12 12 12 11 11 10 10 10 10 9 9 9 9 8 8 8 7 7 6
12 14 14 13 14 15 15 15 15 15 16 17 17 17 17 18 18 18 17 16 16 15 15 14 14 13 12 12 11 10 10 10 9 9 9 9 9 8 8 8 7 7 6 6
11 12 11 13 15 15 15 16 16 16 16 17 17 18 18 18 18 17 17 16 16 15 15 14 14 13 12 11 10 10 9 9 9 9 8 8 8 8 7 7 7 6 6 5
10 10 11 14 15 15 15 15 16 16 16 16 18 17 17 17 17 17 16 16 15 15 15 14 13 13 12 11 10 9 9 9 8 8 7 7 7 7 7 6 6 6 5 5
9 10 11 14 15 16 15 14 16 16 15 15 15 13 14 16 16 16 16 15 15 14 14 14 13 12 11 11 10 10 9 9 8 7 7 7 7 6 6 6 5 5 4 4
9 10 12 15 15 15 13 13 16 16 16 15 13 14 15 16 16 15 15 15 14 14 14 13 12 12 11 10 10 9 9 8 7 7 6 6 6 5 5 5 4 4 4 3
10 10 11 14 14 14 14 16 17 17 17 16 16 16 15 15 15 14 14 14 14 13 13 12 12 11 11 10 9 9 8 7 7 6 6 5 5 5 4 4 4 3 3 2
11 12 14 14 14 16 17 16 16 16 16 16 15 15 14 14 14 13 13 13 13 12 12 11 11 10 10 9 9 8 7 7 6 5 5 4 4 4 4 3 3 3 2 2
12 13 13 14 15 15 16 16 16 16 16 16 15 14 14 13 13 13 12 12 12 12 11 11 10 10 9 9 8 7 7 6 5 5 4 4 3 3 3 3 2 2 1 1
12 12 12 13 15 15 15 15 15 15 15 15 15 14 14 13 13 12 12 12 11 11 11 10 10 9 9 8 7 7 6 5 5 4 4 3 3 3 2 2 2 1 1 0
11 12 12 12 15 15 14 15 15 15 14 14 14 14 13 13 12 12 12 11 11 10 10 10 9 8 8 7 7 6 5 5 4 4 3 3 2 2 2 1 1 0 -0 -1
14 15 15 15 15 14 14 14 14 14 14 14 13 13 13 13 12 12 11 11 10 10 9 9 8 8 7 6 6 5 5 4 3 3 3 2 2 1 1 1 0 -0 -1 -1
14 14 13 14 14 14 14 14 13 13 13 13 13 13 12 12 11 11 11 10 10 9 8 8 7 7 6 6 5 4 4 3 3 2 2 1 1 1 0 -0 -1 -1 -1 -2
12 13 13 13 13 13 13 13 12 12 12 12 12 12 12 12 11 10 10 9 9 8 7 7 7 6 5 5 4 4 3 3 2 2 1 1 0 -0 -1 -1 -2 -2 -2 -3
11 12 12 12 12 12 12 12 12 12 12 11 11 11 11 11 10 9 9 8 8 7 7 6 6 5 5 4 3 3 2 2 1 1 1 0 -0 -1 -2 -2 -3 -3 -3 -4
10 9 10 10 11 11 11 11 12 12 11 11 11 10 10 9 9 8 7 7 7 6 6 5 5 4 4 3 3 2 2 1 1 0 -0 -1 -1 -2 -3 -3 -4 -4 -4 -5
11 11 11 12 12 11 11 10 10 10 10 10 10 9 9 8 8 7 6 6 5 5 4 4 4 3 3 2 2 2 1 0 -0 -1 -1 -2 -2 -3 -3 -4 -5 -5 -5 -6
10 10 10 11 11 11 10 10 9 9 9 9 8 8 8 7 7 6 6 5 5 4 4 3 3 2 2 2 1 1 0 -0 -1 -1 -2 -3 -3 -4 -4 -5 -5 -6 -6 -7
9 9 9 9 9 9 9 9 8 8 8 8 7 7 6 6 5 5 4 4 4 3 3 2 2 1 1 1 0 -0 -1 -1 -2 -2 -3 -4 -4 -5 -5 -6 -6 -7 -7 -7
8 8 8 8 8 8 8 8 8 7 7 6 6 6 5 5 4 4 3 3 2 2 2 1 1 1 0 -0 -1 -1 -2 -2 -3 -3 -4 -4 -5 -5 -6 -6 -7 -7 -7 -8
7 7 7 7 7 6 6 6 6 6 6 5 5 5 4 3 3 2 2 2 1 1 1 0 -0 -0 -1 -1 -2 -2 -3 -3 -4 -4 -5 -5 -6 -6 -7 -7 -7 -8 -8 -9
5 5 6 6 6 5 4 4 5 5 4 4 4 3 3 2 2 2 1 1 0 -0 -0 -1 -1 -2 -2 -2 -3 -3 -4 -4 -5 -5 -6 -6 -7 -7 -7 -8 -8 -8 -9 -9
4 4 4 3 4 4 3 2 2 2 2 2 2 2 2 1 0 0 0 -0 -1 -1 -1 -2 -2 -2 -3 -3 -4 -4 -5 -5 -5 -6 -6 -7 -7 -7 -8 -8 -8 -9 -9 -9
2 2 2 2 2 1 1 0 0 0 0 0 -0 -0 -0 0 0 -1 -1 -1 -2 -2 -2 -3 -3 -3 -4 -4 -4 -5 -5 -6 -6 -7 -7 -7 -8 -8 -8 -9 -9 -9 -10 -10
-0 -0 -0 -0 0 -0 -0 -0 -1 -1 -1 -1 -1 -2 -1 -1 -1 -2 -2 -2 -2 -3 -3 -3 -4 -4 -5 -5 -5 -6 -6 -6 -7 -7 -7 -8 -8 -9 -9 -9 -9 -10 -10 -10
-2 -2 -2 -3 -3 -2 -2 -2 -2 -2 -2 -2 -2 -2 -2 -2 -2 -3 -3 -3 -3 -4 -4 -4 -5 -5 -5 -6 -6 -6 -7 -7 -7 -8 -8 -8 -9 -9 -9 -10 -10 -10 -10 -10

GEFSNGP_850_meantemp_120.txt.gz
Temperature
9 10 10 10 11 11 11 12 11 11 12 13 13 13 13 15 16 16 16 16 17 17 16 16 15 15 14 13 12 11 11 11 10 10 10 9 9 9 9 8 8 8 8 8
8 9 10 10 11 12 12 12 11 11 12 13 14 14 14 14 15 15 16 17 17 17 16 16 15 15 14 13 12 12 11 11 10 10 9 9 9 8 8 8 8 8 8 7
8 9 9 9 11 12 12 12 12 12 13 13 13 13 13 15 15 16 17 17 17 17 17 16 16 15 14 14 12 12 11 11 10 10 9 9 9 8 8 8 7 7 7 7
7 8 8 10 11 12 12 12 13 13 13 13 13 15 17 17 17 17 17 17 17 17 17 16 16 15 14 13 12 12 11 10 10 9 9 9 8 8 8 7 7 7 7 6
6 7 8 9 10 11 12 12 12 13 13 12 14 14 14 17 17 18 18 18 17 17 17 16 16 15 14 13 12 11 11 10 10 9 9 8 8 8 7 7 7 6 6 6
6 7 8 10 11 11 12 11 12 12 12 12 11 12 13 16 17 17 17 17 17 17 16 16 15 14 14 13 12 12 11 11 10 9 9 8 8 7 7 7 6 6 5 5
6 7 8 10 11 11 11 12 12 13 13 12 12 14 15 16 16 17 17 17 16 16 16 15 15 14 13 13 12 12 11 10 9 9 8 8 7 7 6 6 5 5 5 4
6 7 8 10 9 11 12 13 14 14 14 13 14 14 15 16 16 16 16 16 16 15 15 15 14 14 13 13 12 11 10 9 9 8 7 7 6 6 5 5 5 4 4 3
7 8 9 10 10 13 14 14 14 15 15 14 14 14 14 15 15 16 16 15 15 15 14 14 13 13 13 12 11 10 9 9 8 8 7 6 6 5 5 4 4 4 3 3
6 7 9 10 11 12 13 14 15 15 15 15 14 14 14 14 15 15 15 15 14 14 14 13 13 12 12 11 10 10 9 8 8 7 6 6 5 5 4 4 3 3 3 2
6 7 8 10 11 12 13 14 14 15 15 15 15 14 14 14 14 14 14 14 14 13 13 13 12 11 11 10 10 9 8 8 7 6 6 5 5 4 4 3 3 2 2 1
7 8 8 9 12 12 12 13 14 14 14 14 14 14 14 14 14 14 14 13 13 13 12 12 11 11 10 9 9 8 8 7 6 6 5 5 4 3 3 2 2 1 1 1
8 9 10 11 12 12 12 13 14 14 14 14 14 14 14 13 13 13 13 13 13 12 12 11 10 10 9 9 8 8 7 7 6 5 5 4 3 3 2 2 1 1 0 -0
9 9 9 10 11 12 12 13 13 13 14 14 13 13 13 13 12 12 12 12 12 11 11 10 10 9 8 8 7 7 6 6 5 5 4 3 3 2 2 1 1 0 -0 -1
9 10 10 11 11 11 12 12 12 12 12 12 12 12 12 12 12 12 12 11 11 10 10 9 9 8 8 7 7 6 6 5 4 4 3 3 2 2 1 1 0 -0 -1 -1
9 9 10 11 11 11 11 12 12 12 12 12 12 12 11 12 12 11 11 10 10 9 9 8 8 7 7 6 6 5 5 4 4 3 3 2 1 1 0 -0 -1 -1 -2 -2
8 7 8 9 10 10 11 12 12 12 12 12 11 11 11 10 10 10 9 9 9 9 8 7 7 6 6 5 5 4 4 3 3 2 2 1 1 0 -0 -1 -1 -2 -2 -3
8 9 9 10 10 10 11 11 11 12 12 11 11 10 10 10 10 9 9 8 7 7 6 6 6 5 5 4 4 4 3 3 2 2 1 1 -0 -1 -1 -2 -2 -2 -3 -3
8 8 9 10 10 11 11 11 11 11 11 10 10 10 10 9 9 8 8 7 6 6 5 5 5 4 4 4 3 3 2 2 1 1 0 -0 -1 -1 -2 -2 -3 -3 -4 -4
8 8 9 9 10 10 10 10 10 10 10 9 9 9 8 8 7 7 6 6 6 5 5 4 4 3 3 3 2 2 1 1 0 -0 -1 -1 -2 -2 -3 -3 -4 -4 -4 -5
7 8 8 9 9 9 9 9 9 9 9 8 8 8 7 7 6 6 5 4 4 4 3 3 3 3 2 2 1 1 0 -0 -0 -1 -1 -2 -2 -3 -3 -4 -4 -5 -5 -5
6 7 8 8 8 8 8 8 8 8 7 7 7 6 6 5 5 4 4 4 3 3 2 2 2 1 1 1 0 -0 -0 -1 -1 -2 -2 -3 -3 -4 -4 -4 -5 -5 -5 -6
5 6 7 7 7 7 6 6 6 6 6 6 6 5 5 4 4 4 3 2 2 2 1 1 1 0 0 -0 -1 -1 -2 -2 -2 -3 -3 -4 -4 -4 -5 -5 -5 -6 -6 -6
4 5 5 5 6 5 5 4 4 4 4 4 3 3 3 3 2 2 2 1 1 0 0 -0 -1 -1 -1 -1 -2 -2 -3 -3 -3 -4 -4 -4 -5 -5 -5 -6 -6 -6 -7 -7
3 3 4 4 4 3 3 3 2 2 2 1 1 1 1 2 2 1 0 -0 -0 -1 -1 -1 -2 -2 -2 -2 -3 -3 -3 -4 -4 -4 -5 -5 -5 -6 -6 -6 -7 -7 -7 -7
1 1 1 1 2 2 2 1 1 0 0 -0 -1 -1 -0 -0 -0 -1 -1 -1 -2 -2 -2 -2 -2 -3 -3 -3 -3 -4 -4 -4 -5 -5 -5 -6 -6 -6 -6 -7 -7 -7 -7 -8
-1 -1 -1 -1 -1 -1 -0 -0 -1 -1 -1 -1 -1 -2 -2 -2 -2 -2 -2 -2 -2 -3 -3 -3 -3 -3 -4 -4 -4 -5 -5 -5 -5 -6 -6 -6 -6 -7 -7 -7 -7 -8 -8 -8

GEFSNGP_850_meantemp_126.txt.gz
Temperature
5 6 6 7 7 8 8 8 8 9 10 12 12 12 12 13 14 14 15 16 17 17 17 17 16 16 16 15 15 14 13 12 12 11 11 10 10 10 9 9 9 9 9 8
5 6 7 7 8 8 9 9 9 9 9 11 12 12 12 13 13 13 15 16 17 17 17 17 16 16 16 15 15 14 13 12 12 11 10 10 10 9 9 9 9 8 8 8
4 5 6 6 8 9 9 10 10 10 11 10 11 11 12 13 14 15 16 17 17 17 17 17 17 16 16 15 14 13 13 12 11 11 10 10 9 9 9 8 8 8 8 8
4 4 5 7 9 9 9 10 10 10 10 11 11 12 15 15 16 16 16 16 17 17 17 17 16 16 15 14 14 13 12 11 11 10 10 9 9 9 8 8 8 8 7 7
3 4 5 7 7 8 9 9 10 10 10 10 12 12 13 15 16 16 17 17 17 17 17 17 16 15 15 14 13 13 12 11 11 10 10 9 9 9 8 8 7 7 7 7
3 4 6 7 7 8 9 9 9 10 10 10 9 10 12 15 15 16 16 16 16 16 16 16 16 15 14 14 13 13 12 12 11 10 10 9 9 8 8 7 7 7 7 6
3 4 5 7 7 8 8 8 9 9 10 10 9 12 13 14 15 15 16 16 16 16 16 16 15 15 14 14 13 13 12 11 11 10 9 9 8 8 7 7 7 6 6 6
3 4 5 6 6 8 8 9 10 10 10 10 11 12 13 13 14 15 15 15 15 15 15 15 15 15 14 14 13 12 12 11 10 9 9 8 8 7 7 6 6 6 6 5
4 5 6 6 7 9 9 9 10 10 10 10 10 11 12 13 13 14 15 15 15 15 15 15 15 14 14 14 13 12 11 11 10 9 8 8 7 7 6 6 6 5 5 5
3 4 5 6 7 8 9 9 10 10 10 10 10 11 11 12 12 13 14 14 14 14 14 14 14 14 14 13 12 12 11 10 9 9 8 7 7 6 6 6 5 5 5 4
3 4 5 6 7 8 8 9 9 10 10 10 10 10 11 11 12 13 13 13 14 14 14 14 14 13 13 12 12 11 10 10 9 8 7 7 6 6 5 5 5 5 4 4
3 4 4 5 7 7 8 8 9 9 9 10 10 11 11 11 12 12 13 13 13 13 13 13 13 13 12 12 11 11 10 9 8 8 7 7 6 5 5 5 4 4 3 3
5 5 6 7 7 7 7 8 8 9 9 10 10 11 11 11 12 12 12 12 13 13 13 13 12 12 11 11 10 10 10 9 8 7 7 6 6 5 5 4 3 3 2 2
5 5 5 6 7 7 7 8 8 8 9 10 10 10 11 11 11 11 12 12 12 12 12 12 12 11 10 10 10 9 9 8 8 7 6 6 5 5 4 4 3 2 2 1
4 5 5 6 6 7 7 7 7 8 9 9 10 10 10 10 10 10 11 11 11 11 11 11 11 10 10 9 9 8 8 8 7 6 6 5 5 4 3 3 2 2 1 1
4 5 5 5 6 6 7 7 7 8 8 9 9 9 10 10 10 10 10 10 10 10 10 10 10 10 9 9 8 8 7 7 6 6 5 5 4 3 3 2 2 1 1 0
3 3 4 4 5 6 6 7 8 8 8 9 9 9 9 9 9 9 9 9 10 10 10 10 9 9 8 8 7 7 7 6 5 5 4 4 3 3 2 2 1 1 0 -0
3 4 4 5 5 6 6 7 8 8 8 9 9 9 9 9 9 8 8 8 8 8 8 9 8 8 7 7 7 6 6 5 5 4 4 3 3 2 2 1 0 -0 -1 -1
3 4 4 5 6 6 6 7 8 8 8 9 9 8 8 8 9 8 8 8 8 8 7 7 7 7 7 6 6 6 5 5 4 3 3 2 2 1 1 0 -0 -1 -1 -2
3 4 5 5 5 6 6 7 7 8 8 8 8 8 7 7 8 8 7 7 7 8 7 6 6 6 6 5 5 5 4 4 3 3 2 2 1 1 -0 -1 -1 -1 -2 -2
3 4 5 5 5 6 6 7 7 7 7 7 8 8 7 7 7 7 7 6 6 6 6 6 5 5 5 5 4 4 3 3 2 2 1 1 0 -0 -1 -1 -2 -2 -3 -3
3 3 4 4 5 5 5 6 7 7 7 6 7 7 7 6 6 6 6 6 5 5 5 5 5 4 4 4 3 3 3 2 1 1 1 0 -0 -1 -1 -2 -2 -3 -3 -4
2 3 3 4 4 5 5 5 5 6 6 6 6 6 6 6 5 6 5 4 4 4 4 4 4 3 3 3 2 2 2 1 1 0 -0 -1 -1 -2 -2 -3 -3 -4 -4 -4
1 2 3 3 4 4 4 4 4 4 4 5 5 5 5 5 4 4 4 3 3 3 3 3 2 2 2 2 1 1 0 0 -0 -1 -1 -2 -2 -3 -3 -4 -4 -4 -5 -5
0 1 2 2 2 2 3 3 3 3 3 3 2 2 3 4 4 3 2 2 2 2 2 1 1 1 1 1 0 -0 -1 -1 -1 -2 -2 -3 -3 -4 -4 -4 -5 -5 -5 -5
-1 -1 -0 1 1 1 2 2 2 1 1 1 1 1 1 1 1 1 1 1 1 1 1 0 -0 -0 -0 -1 -1 -1 -2 -2 -3 -3 -3 -3 -4 -4 -4 -5 -5 -5 -6 -6
-3 -2 -1 -1 -1 -1 -0 0 1 0 0 1 0 -1 -1 -0 -0 -0 -0 -0 -0 -0 -0 -1 -1 -1 -2 -2 -2 -2 -3 -3 -3 -4 -4 -4 -5 -5 -5 -5 -6 -6 -6 -6

GEFSNGP_850_meantemp_132.txt.gz
Temperature
5 6 6 6 6 7 7 9 10 12 13 15 15 15 15 14 14 13 13 13 14 14 15 15 15 16 16 16 15 15 15 14 13 13 12 11 11 10 10 10 10 10 9 9
4 6 6 6 7 8 8 9 10 11 12 15 15 14 14 14 13 13 13 13 14 14 14 15 15 15 15 15 15 15 14 14 13 12 11 11 10 10 10 10 9 9 9 9
4 5 5 6 8 9 9 10 11 11 12 13 13 13 14 13 13 13 13 13 14 14 15 15 15 15 15 15 15 14 14 13 13 12 11 11 10 10 9 9 9 9 9 8
3 4 4 8 9 9 9 10 10 11 12 12 13 13 13 13 13 13 13 13 14 14 14 15 15 15 15 14 14 14 13 13 12 12 11 10 10 9 9 9 9 8 8 8
3 4 5 7 8 8 9 9 10 10 11 11 12 12 13 13 13 13 13 13 14 14 14 15 15 15 15 14 14 13 13 13 12 12 11 10 10 9 9 9 8 8 8 8
3 3 5 8 8 9 9 9 10 10 10 11 11 11 13 12 12 12 13 13 13 14 14 14 14 14 14 14 13 13 13 13 12 11 11 10 10 9 9 8 8 8 7 7
3 4 6 7 8 8 7 8 9 9 9 10 10 10 11 11 11 12 12 12 13 13 14 14 14 14 14 14 14 13 13 12 11 11 11 10 10 9 8 8 7 7 7 7
3 3 5 7 7 7 8 8 8 8 9 9 9 9 9 10 10 11 11 12 12 13 13 14 14 14 14 14 13 13 12 11 11 10 10 9 9 8 8 7 7 7 6 6
3 5 7 6 6 7 6 7 7 7 8 8 8 8 9 9 9 10 11 11 12 12 13 13 13 13 13 13 13 12 12 11 10 10 9 9 9 8 7 7 6 6 6 6
3 4 5 5 5 5 6 6 6 7 7 7 7 8 8 8 9 9 10 11 11 12 13 13 13 13 13 13 13 12 11 11 10 9 9 8 8 8 7 7 6 6 6 6
3 4 5 5 5 5 5 5 6 6 6 7 7 7 7 8 8 8 9 10 11 11 12 12 13 12 12 12 12 12 11 10 10 9 8 8 7 7 7 6 6 6 6 6
3 4 4 5 5 5 5 5 5 5 6 6 7 7 7 7 7 8 9 10 10 11 11 12 12 12 12 12 12 11 11 10 9 9 8 7 7 6 6 6 5 5 5 5
3 3 3 3 3 4 4 4 5 5 5 6 6 7 7 7 7 7 8 9 10 10 11 11 12 12 12 12 11 11 11 10 9 8 8 7 7 6 6 5 5 4 4 4
2 2 2 3 3 3 4 4 4 5 5 5 6 6 6 6 6 7 8 9 10 10 10 11 11 11 11 11 11 10 10 9 9 8 7 7 7 6 6 5 4 4 3 3
2 2 2 2 3 3 3 4 4 4 5 5 5 5 6 6 6 7 8 9 9 9 10 10 10 11 10 10 10 10 9 9 8 7 7 6 6 6 5 5 4 4 3 2
1 1 1 2 2 2 3 3 4 4 4 5 5 5 5 6 6 7 7 8 9 9 10 10 10 10 10 9 9 9 8 8 8 7 6 6 5 5 5 4 4 3 3 2
0 1 1 2 2 2 2 3 3 4 4 4 5 5 5 5 5 6 6 7 8 9 9 10 10 10 9 9 9 8 8 7 7 6 6 5 5 5 4 4 3 3 2 2
-0 0 1 1 1 2 2 3 3 4 4 4 5 4 5 5 5 6 6 6 6 7 7 8 9 9 8 8 8 8 7 7 6 6 5 5 4 4 4 3 2 2 1 1
-1 -0 0 0 1 1 2 3 3 4 4 4 4 4 4 5 5 5 5 6 6 6 6 7 8 8 8 7 7 7 7 6 6 5 5 4 4 3 3 2 2 1 1 0
-1 -0 0 0 1 1 2 3 3 3 4 4 4 4 4 4 4 4 4 5 5 6 7 7 7 7 7 7 7 7 6 6 5 5 4 4 3 3 2 2 1 1 0 0
-1 -1 -0 0 1 2 2 3 3 4 4 3 4 4 4 4 4 4 4 4 4 5 6 6 6 6 6 6 6 6 5 5 5 4 4 3 3 2 2 1 1 0 0 -0
-2 -1 -0 0 1 1 2 3 3 3 3 3 3 4 3 3 3 3 4 4 5 5 5 5 5 6 5 5 5 5 5 4 4 4 3 3 2 2 1 1 0 -0 -1 -1
-3 -2 -1 -0 0 1 1 2 2 3 3 3 3 3 3 3 3 4 3 3 4 4 5 5 5 5 5 5 5 4 4 4 3 3 3 2 2 1 1 0 -0 -1 -1 -2
-3 -2 -1 -1 -0 0 0 0 1 2 2 2 2 3 3 2 2 3 3 3 3 4 4 4 4 4 4 4 4 4 3 3 3 2 2 1 1 0 -0 -1 -1 -2 -2 -2
-4 -3 -2 -2 -1 -1 -1 -0 0 0 1 1 1 1 1 2 3 3 3 2 3 3 3 3 3 3 3 3 3 3 2 2 2 1 1 1 0 -1 -1 -1 -2 -2 -2 -3
-5 -4 -4 -3 -3 -2 -1 -1 -1 -1 -0 -0 -0 0 0 1 1 2 2 2 2 2 2 2 2 2 2 2 2 1 1 1 1 0 -0 -0 -1 -1 -2 -2 -2 -3 -3 -4
-5 -5 -5 -4 -4 -3 -2 -2 -2 -2 -1 -1 -1 -1 -1 -0 0 1 1 1 1 1 1 1 1 1 1 1 1 0 0 -0 -0 -1 -1 -1 -2 -2 -2 -3 -3 -4 -4 -4

GEFSNGP_850_meantemp_138.txt.gz
Temperature
4 5 5 5 5 5 5 5 6 8 9 10 11 12 12 13 13 14 13 13 13 13 14 14 14 14 15 15 15 15 14 14 14 14 13 13 12 12 11 11 11 10 10 10
3 4 5 5 6 6 6 6 7 8 9 11 11 12 12 12 13 12 12 12 12 12 13 13 13 14 14 14 14 14 14 14 14 13 13 12 12 12 11 11 11 10 10 10
2 4 4 4 6 6 7 7 8 8 9 10 10 11 11 11 12 12 11 11 11 12 12 13 13 13 14 14 14 14 14 14 14 13 13 12 12 11 11 11 10 10 10 9
1 2 2 4 7 7 7 8 8 8 9 9 10 11 11 11 11 11 11 11 11 11 12 12 13 13 13 14 14 14 14 13 13 13 12 12 11 11 11 10 10 10 9 9
1 1 3 5 7 7 7 7 7 8 8 9 9 10 11 10 10 10 10 11 11 11 12 12 12 12 13 13 13 13 13 13 13 13 12 12 11 11 10 10 10 9 9 9
1 1 3 5 7 7 7 6 7 7 8 8 8 8 9 10 10 10 10 10 11 11 11 11 12 12 12 13 13 13 13 13 13 12 12 11 11 10 10 10 9 9 9 9
1 1 3 5 6 7 5 5 6 7 7 7 7 8 8 9 9 9 10 10 10 11 11 11 11 12 12 12 13 13 13 12 12 12 11 11 10 10 9 9 9 9 8 8
1 1 2 5 5 5 4 6 6 6 7 7 7 8 8 8 9 9 9 10 10 10 10 11 11 11 11 12 12 12 12 12 11 11 11 10 10 9 9 9 9 8 8 8
2 2 4 5 5 5 6 5 6 6 6 6 6 7 7 7 8 8 9 9 10 10 10 10 10 11 11 11 12 12 12 11 11 10 10 10 9 9 9 8 8 8 8 7
2 3 4 5 5 5 5 5 5 5 5 5 5 6 6 7 7 8 8 9 9 9 9 10 10 10 11 11 12 11 11 11 10 10 10 9 9 9 9 8 8 8 7 7
2 3 4 5 5 5 4 4 4 4 5 5 5 5 5 6 6 7 7 8 9 9 9 9 10 10 10 11 11 11 11 10 10 10 9 9 8 8 8 8 8 8 7 7
2 3 3 3 4 4 4 4 4 4 4 4 4 4 5 5 6 6 7 8 8 9 9 9 9 10 10 11 11 11 10 10 9 9 9 8 8 8 7 8 7 7 7 7
3 4 3 4 4 3 3 3 3 3 3 4 4 4 4 5 6 6 7 7 8 8 8 8 9 9 10 10 10 11 11 10 9 9 8 8 8 8 7 7 6 6 6 6
3 3 2 3 2 2 2 3 3 3 3 3 3 4 4 5 5 6 6 7 7 8 8 8 8 9 10 10 10 10 10 10 9 9 8 8 8 8 7 7 6 6 5 5
1 1 1 1 2 2 2 2 2 2 2 2 3 3 4 4 5 6 6 6 7 7 7 7 8 8 9 9 9 9 9 9 8 8 8 7 7 7 7 6 6 6 5 4
0 0 0 0 1 1 1 1 1 1 2 2 2 3 3 4 4 5 5 6 6 6 7 7 7 8 9 9 9 9 9 8 8 8 7 7 7 7 6 6 6 5 5 4
-1 -1 -1 -0 -0 -0 0 0 1 1 1 1 2 2 3 3 3 4 4 5 5 6 6 7 7 8 8 8 9 9 8 7 7 7 7 7 6 6 6 6 5 5 5 4
-2 -2 -2 -2 -1 -1 -1 -0 0 0 1 1 1 2 2 2 3 3 3 4 4 5 5 6 7 7 7 8 8 8 8 7 7 7 6 6 6 6 6 5 5 5 4 3
-3 -3 -3 -2 -2 -2 -1 -1 -0 0 1 1 1 1 2 2 2 2 3 3 4 4 5 5 6 6 7 7 7 7 7 7 6 6 6 6 5 5 5 5 5 4 4 3
-3 -3 -3 -3 -2 -2 -1 -1 -0 -0 0 1 1 1 1 1 2 2 2 3 3 4 4 4 5 5 6 6 7 7 7 6 6 5 5 5 5 5 5 4 4 3 3 3
-4 -4 -3 -3 -3 -2 -1 -1 -0 -0 0 1 1 1 1 1 2 2 2 2 3 3 3 4 4 5 5 6 6 6 6 6 5 5 5 5 5 4 4 4 3 3 2 2
-5 -4 -4 -4 -3 -2 -2 -1 -1 -0 0 0 1 1 1 1 1 1 1 2 2 3 3 3 4 5 5 5 5 5 5 5 5 5 5 5 4 4 4 3 3 2 2 1
-6 -5 -5 -4 -4 -3 -2 -1 -1 -0 -0 0 0 0 0 0 1 1 1 1 2 2 3 3 4 4 5 5 5 5 5 5 5 5 4 4 4 4 3 3 2 2 1 1
-6 -6 -5 -4 -4 -3 -3 -2 -2 -1 -1 -1 -0 -0 0 0 0 1 1 1 1 2 2 2 3 4 4 4 4 4 4 4 4 4 4 4 3 3 3 2 2 1 1 0
-6 -6 -6 -5 -4 -4 -3 -3 -2 -2 -2 -2 -1 -1 -1 -0 0 0 0 0 1 1 1 2 2 3 4 4 4 4 4 4 4 4 3 3 3 2 2 2 1 1 0 -0
-7 -6 -6 -6 -5 -5 -4 -4 -3 -3 -2 -2 -2 -2 -1 -1 -0 -0 -0 0 0 1 1 1 1 2 3 3 3 3 3 3 2 3 2 2 2 1 1 1 0 -0 -1 -1
-7 -7 -7 -6 -6 -5 -5 -4 -4 -4 -3 -3 -3 -2 -2 -1 -1 -1 -1 -1 -1 -0 -0 0 1 1 1 2 2 2 2 2 2 2 1 1 1 0 0 -0 -0 -1 -1 -2